Henderson, KY

5:23 PM CST on November 15, 2019 (GMT -0600)
Henderson City-County

Weather History for KEHR - September, 2019

Change the Weather History Date:

Monday, September 2, 2019

  Actual Average Record
Temperature  
Mean Temperature 74 °F -  
Max Temperature 82 °F 86 °F 103 °F (1953)
Min Temperature 64 °F 64 °F 46 °F (1949)
Cooling Degree Days 9    
Growing Degree Days 24 (Base 50)    
Moisture  
Dew Point 68 °F    
Average Humidity 81    
Maximum Humidity 100    
Minimum Humidity 60    
Precipitation  
Precipitation 0.00 in - - ()
Sea Level Pressure  
Sea Level Pressure 30.10 in    
Wind  
Wind Speed 3 mph (NNW)    
Max Wind Speed 7 mph    
Max Gust Speed -    
Visibility 8 miles    
Events      
Averages and records for this station are not official NWS values.
T = Trace of Precipitation, MM = Missing Value Source: NWS Daily Summary

Daily Weather History Graph

Daily Weather History Graph

Search for Another Location

Airport or City:

Astronomy

Sep. 02, 2019 Rise Set
Actual Time 6:21 AM CDT 7:18 PM CDT
Civil Twilight 5:54 AM CDT 7:45 PM CDT
Nautical Twilight 5:22 AM CDT 8:17 PM CDT
Astronomical Twilight 4:49 AM CDT 8:50 PM CDT
Moon 9:59 AM CDT (9/2) 9:44 PM CDT (9/2)
Length of Visible Light 13h 51m
Length of Day
12h 57m
Waxing Crescent, 15% of the Moon is Illuminated
Sep 2
Waxing Crescent
Sep 5
First Quarter
Sep 13
Full
Sep 21
Last Quarter
Sep 28
New

Hourly Weather History & Observations

Time (CDT) Temp. Heat Index Dew Point Humidity Pressure Visibility Wind Dir Wind Speed Gust Speed Precip Events Conditions
12:56 AM 69.1 °F - 68.0 °F 96% 30.07 in 10.0 mi SW 3.5 mph - N/A   Clear
1:56 AM 68.0 °F - 66.9 °F 96% 30.07 in 5.0 mi WSW 3.5 mph - N/A   Scattered Clouds
2:56 AM 68.0 °F - 66.9 °F 96% 30.07 in 6.0 mi Calm Calm - N/A   Scattered Clouds
3:56 AM 69.1 °F - 68.0 °F 96% 30.08 in 6.0 mi Calm Calm - N/A   Mostly Cloudy
4:36 AM 68.0 °F - 66.2 °F 94% 30.09 in 1.8 mi Calm Calm - N/A   Partly Cloudy
4:56 AM 66.0 °F - 64.9 °F 96% 30.09 in 2.5 mi Calm Calm - N/A   Clear
5:10 AM 66.2 °F - 66.2 °F 100% 30.10 in 5.0 mi NNW 3.5 mph - N/A   Clear
5:56 AM 68.0 °F - 68.0 °F 100% 30.09 in 4.0 mi NW 3.5 mph - N/A   Clear
6:04 AM 66.2 °F - 66.2 °F 100% 30.10 in 1.8 mi Calm Calm - N/A   Clear
6:29 AM 66.2 °F - 66.2 °F 100% 30.11 in 3.0 mi NW 3.5 mph - N/A   Clear
6:56 AM 68.0 °F - 68.0 °F 100% 30.11 in 5.0 mi NW 3.5 mph - N/A   Clear
7:56 AM 72.0 °F - 70.0 °F 93% 30.12 in 10.0 mi NNW 3.5 mph - N/A   Clear
8:56 AM 75.9 °F - 70.0 °F 82% 30.13 in 10.0 mi North 4.6 mph - N/A   Clear
9:56 AM 79.0 °F - 69.1 °F 72% 30.13 in 10.0 mi NNE 4.6 mph - N/A   Clear
10:17 AM 78.8 °F - 69.8 °F 74% 30.14 in 10.0 mi NW 3.5 mph - N/A   Mostly Cloudy
10:49 AM 78.8 °F - 68.0 °F 69% 30.13 in 10.0 mi Calm Calm - N/A   Scattered Clouds
10:56 AM 81.0 °F 84.1 °F 69.1 °F 67% 30.12 in 10.0 mi Variable 4.6 mph - N/A   Partly Cloudy
11:28 AM 78.8 °F - 69.8 °F 74% 30.13 in 10.0 mi NNW 5.8 mph - N/A   Mostly Cloudy
11:37 AM 80.6 °F 83.2 °F 68.0 °F 65% 30.13 in 10.0 mi Calm Calm - N/A   Scattered Clouds
11:46 AM 80.6 °F 83.2 °F 68.0 °F 65% 30.13 in 10.0 mi NNW 6.9 mph - N/A   Mostly Cloudy
11:56 AM 80.1 °F 82.9 °F 69.1 °F 69% 30.12 in 10.0 mi NW 5.8 mph - N/A   Mostly Cloudy
12:06 PM 80.6 °F 83.9 °F 69.8 °F 70% 30.12 in 10.0 mi Variable 5.8 mph - N/A   Scattered Clouds
12:31 PM 80.6 °F 83.9 °F 69.8 °F 70% 30.12 in 10.0 mi Variable 3.5 mph - N/A   Mostly Cloudy
12:40 PM 80.6 °F 83.9 °F 69.8 °F 70% 30.11 in 10.0 mi Variable 3.5 mph - N/A   Scattered Clouds
12:56 PM 82.0 °F 85.9 °F 70.0 °F 67% 30.10 in 10.0 mi NE 5.8 mph - N/A   Partly Cloudy
1:56 PM 82.9 °F 86.5 °F 69.1 °F 63% 30.09 in 10.0 mi North 4.6 mph - N/A   Clear
2:56 PM 82.0 °F 84.5 °F 66.9 °F 60% 30.08 in 10.0 mi Variable 5.8 mph - N/A   Clear
3:56 PM 82.9 °F 85.8 °F 68.0 °F 60% 30.07 in 10.0 mi NE 6.9 mph - N/A   Mostly Cloudy
4:56 PM 82.0 °F 84.5 °F 66.9 °F 60% 30.06 in 10.0 mi NW 6.9 mph - N/A   Clear
6:56 PM 78.1 °F - 66.9 °F 68% 30.06 in 10.0 mi North 3.5 mph - N/A   Clear
7:56 PM 75.0 °F - 66.9 °F 76% 30.06 in 10.0 mi NNE 3.5 mph - N/A   Clear
8:56 PM 72.0 °F - 66.9 °F 84% 30.07 in 10.0 mi NNE 4.6 mph - N/A   Clear
9:56 PM 71.1 °F - 66.9 °F 87% 30.07 in 10.0 mi NNE 4.6 mph - N/A   Clear
10:56 PM 66.9 °F - 64.9 °F 93% 30.08 in 10.0 mi Calm Calm - N/A   Clear
11:56 PM 64.9 °F - 64.0 °F 97% 30.07 in 8.0 mi Calm Calm - N/A   Clear